Weather History for KRKD - February, 2014

Change the Weather History Date:

Tuesday, February 18, 2014

  Actual Average Record
Temperature  
Mean Temperature 14 °F -  
Max Temperature 33 °F 31 °F 48 °F (2008)
Min Temperature -4 °F 17 °F -4 °F (2014)
Degree Days  
Heating Degree Days 50    
Moisture  
Dew Point 14 °F    
Average Humidity 80    
Maximum Humidity 100    
Minimum Humidity 40    
Precipitation  
Precipitation 0.30 in - - ()
Sea Level Pressure  
Sea Level Pressure 30.20 in    
Wind  
Wind Speed 6 mph (ENE)    
Max Wind Speed 20 mph    
Max Gust Speed 25 mph    
Visibility 8 miles    
Events      
Averages and records for this station are not official NWS values.
T = Trace of Precipitation, MM = Missing Value Source: NWS Daily Summary

Daily Weather History Graph

Daily Weather History Graph

Search for Another Location

Airport or City:

Trip Planner

Search our weather history database for the weather conditions in past years. The results will help you decide how hot, cold, wet, or windy it might be!

Date:

Astronomy

Feb. 18, 2014 Rise Set
Actual Time 6:31 AM EST 5:10 PM EST
Civil Twilight 6:01 AM EST 5:39 PM EST
Nautical Twilight 5:28 AM EST 6:13 PM EST
Astronomical Twilight 4:54 AM EST 6:46 PM EST
Moon 9:09 PM EST (2/18) 7:52 AM EST (2/18)
Length of Visible Light 11h 37m
Length of Day
10h 38m
Waning Gibbous, 87% of the Moon is Illuminated
Feb 18
Waning Gibbous
Feb 22
Last Quarter
Mar 1
New
Mar 8
First Quarter
Mar 16
Full

Hourly Weather History & Observations

Time (EST) Temp. Windchill Dew Point Humidity Pressure Visibility Wind Dir Wind Speed Gust Speed Precip Events Conditions
12:15 AM 6.8 °F - -5.8 °F 56% 30.35 in 10.0 mi Calm Calm - N/A   Clear
12:35 AM 5.0 °F - -5.8 °F 61% 30.34 in 10.0 mi Calm Calm - N/A   Clear
12:55 AM 3.2 °F -4.2 °F -7.6 °F 61% 30.35 in 10.0 mi West 3.5 mph - N/A   Clear
1:15 AM 8.6 °F -1.3 °F 1.4 °F 73% 30.34 in 10.0 mi WNW 5.8 mph - N/A   Clear
1:35 AM 6.8 °F -0.1 °F -13.0 °F 40% 30.34 in 10.0 mi NNW 3.5 mph - N/A   Clear
1:55 AM 1.4 °F -11.3 °F -7.6 °F 66% 30.36 in 10.0 mi West 6.9 mph - N/A   Clear
2:15 AM 1.4 °F - -5.8 °F 72% 30.35 in 10.0 mi Calm Calm - N/A   Clear
2:35 AM -0.4 °F -10.4 °F -13.0 °F 55% 30.35 in 10.0 mi WNW 4.6 mph - N/A   Clear
2:55 AM -0.4 °F -10.4 °F -4.0 °F 85% 30.35 in 10.0 mi WNW 4.6 mph - N/A   Clear
3:15 AM -0.4 °F -8.3 °F -7.6 °F 72% 30.35 in 10.0 mi West 3.5 mph - N/A   Clear
3:35 AM -0.4 °F -10.4 °F -7.6 °F 72% 30.36 in 10.0 mi West 4.6 mph - N/A   Clear
3:55 AM -4.0 °F -14.6 °F -11.2 °F 71% 30.36 in 10.0 mi West 4.6 mph - N/A   Clear
4:15 AM -2.2 °F -10.4 °F -2.2 °F 100% 30.37 in 10.0 mi West 3.5 mph - N/A   Clear
4:35 AM -2.2 °F -14.2 °F -9.4 °F 71% 30.38 in 10.0 mi West 5.8 mph - N/A   Clear
4:55 AM -4.0 °F -12.4 °F -7.6 °F 85% 30.38 in 10.0 mi WNW 3.5 mph - N/A   Clear
5:15 AM -2.2 °F - -5.8 °F 85% 30.38 in 10.0 mi Calm Calm - N/A   Clear
5:35 AM -2.2 °F -12.5 °F -7.6 °F 78% 30.38 in 10.0 mi West 4.6 mph - N/A   Clear
5:55 AM -2.2 °F -10.4 °F -2.2 °F 100% 30.37 in 10.0 mi West 3.5 mph - N/A   Clear
6:15 AM -2.2 °F - -7.6 °F 78% 30.37 in 10.0 mi Calm Calm - N/A   Clear
6:35 AM -2.2 °F - -7.6 °F 78% 30.37 in 10.0 mi Calm Calm - N/A   Clear
6:55 AM -0.4 °F - -0.4 °F 100% 30.36 in 10.0 mi Calm Calm - N/A   Clear
7:15 AM -0.4 °F - -9.4 °F 66% 30.36 in 10.0 mi Calm Calm - N/A   Clear
7:35 AM 1.4 °F - 1.4 °F 100% 30.36 in 10.0 mi Calm Calm - N/A   Clear
7:55 AM 3.2 °F - -0.4 °F 85% 30.37 in 10.0 mi Calm Calm - N/A   Clear
8:15 AM 10.4 °F 0.8 °F 6.8 °F 85% 30.37 in 10.0 mi ENE 5.8 mph - N/A   Clear
8:35 AM 17.6 °F 8.2 °F 10.4 °F 73% 30.37 in 10.0 mi ENE 6.9 mph - N/A   Clear
8:55 AM 19.4 °F 8.6 °F 10.4 °F 68% 30.37 in 10.0 mi ENE 9.2 mph - N/A   Clear
9:15 AM 19.4 °F 7.9 °F 10.4 °F 68% 30.36 in 10.0 mi ENE 10.4 mph - N/A   Clear
9:35 AM 19.4 °F 7.9 °F 12.2 °F 74% 30.35 in 10.0 mi ENE 10.4 mph - N/A   Clear
9:55 AM 19.4 °F 8.6 °F 12.2 °F 74% 30.34 in 10.0 mi ENE 9.2 mph - N/A   Scattered Clouds
10:15 AM 19.4 °F 8.6 °F 12.2 °F 74% 30.34 in 10.0 mi NE 9.2 mph - N/A   Mostly Cloudy
10:35 AM 21.2 °F 8.9 °F 14.0 °F 74% 30.32 in 10.0 mi NE 12.7 mph - N/A   Overcast
10:55 AM 21.2 °F 9.5 °F 15.8 °F 80% 30.29 in 10.0 mi NE 11.5 mph - N/A   Overcast
11:15 AM 23.0 °F 13.9 °F 15.8 °F 74% 30.28 in 10.0 mi NE 8.1 mph - N/A   Overcast
11:35 AM 24.8 °F 20.5 °F 17.6 °F 74% 30.26 in 10.0 mi NNE 3.5 mph - N/A   Overcast
11:55 AM 28.4 °F 18.5 °F 24.8 °F 86% 30.24 in 10.0 mi ESE 11.5 mph - N/A   Overcast
12:15 PM 30.2 °F 20.8 °F 23.0 °F 75% 30.22 in 10.0 mi SE 11.5 mph - N/A   Overcast
12:35 PM 30.2 °F 19.8 °F 21.2 °F 69% 30.22 in 10.0 mi SE 13.8 mph 18.4 mph N/A   Overcast
12:55 PM 30.2 °F 21.3 °F 21.2 °F 69% 30.22 in 10.0 mi SE 10.4 mph 18.4 mph N/A   Overcast
1:15 PM 30.2 °F 20.2 °F 23.0 °F 75% 30.20 in 10.0 mi SE 12.7 mph - N/A   Overcast
1:35 PM 30.2 °F 21.9 °F 24.8 °F 80% 30.20 in 10.0 mi SE 9.2 mph - N/A   Overcast
1:55 PM 32.0 °F 22.1 °F 24.8 °F 75% 30.18 in 10.0 mi SE 13.8 mph 19.6 mph N/A   Overcast
2:15 PM 32.0 °F 23.0 °F 24.8 °F 75% 30.18 in 10.0 mi SSE 11.5 mph - N/A   Overcast
2:35 PM 32.0 °F 22.5 °F 24.8 °F 75% 30.18 in 10.0 mi SSE 12.7 mph 18.4 mph N/A   Overcast
2:55 PM 32.0 °F 22.5 °F 24.8 °F 75% 30.17 in 10.0 mi SE 12.7 mph - N/A   Overcast
3:15 PM 32.0 °F 22.5 °F 24.8 °F 75% 30.16 in 10.0 mi SE 12.7 mph - N/A   Overcast
3:35 PM 33.8 °F 25.3 °F 24.8 °F 70% 30.15 in 10.0 mi SE 11.5 mph - N/A   Overcast
3:55 PM 33.8 °F 25.3 °F 24.8 °F 70% 30.13 in 10.0 mi ESE 11.5 mph - N/A   Overcast
4:15 PM 33.8 °F 24.8 °F 24.8 °F 70% 30.13 in 10.0 mi SE 12.7 mph - N/A   Overcast
4:35 PM 33.8 °F 24.3 °F 26.6 °F 75% 30.12 in 10.0 mi ESE 13.8 mph - N/A   Overcast
4:55 PM 33.8 °F 24.3 °F 26.6 °F 75% 30.10 in 8.0 mi ESE 13.8 mph 19.6 mph N/A   Mostly Cloudy
5:15 PM 33.8 °F 23.5 °F 26.6 °F 75% 30.09 in 10.0 mi ESE 16.1 mph - N/A   Overcast
5:35 PM 33.8 °F 23.2 °F 26.6 °F 75% 30.08 in 3.0 mi ESE 17.3 mph 25.3 mph N/A   Overcast
5:55 PM 30.2 °F 17.8 °F 28.4 °F 93% 30.06 in 1.0 mi ESE 19.6 mph - N/A   Overcast
6:15 PM 30.2 °F 18.1 °F 30.2 °F 100% 30.05 in 1.5 mi East 18.4 mph 25.3 mph N/A   Overcast
6:35 PM 30.2 °F 18.9 °F 30.2 °F 100% 30.03 in 1.8 mi East 16.1 mph - N/A   Overcast
6:55 PM 30.2 °F 18.1 °F 28.4 °F 93% 30.01 in 1.5 mi East 18.4 mph - N/A   Overcast
7:15 PM 30.2 °F 18.9 °F 28.4 °F 93% 30.00 in 1.0 mi East 16.1 mph 25.3 mph 0.01 in   Overcast
7:35 PM 32.0 °F 21.6 °F 32.0 °F 100% 29.99 in 1.0 mi East 15.0 mph 24.2 mph 0.02 in   Overcast
7:55 PM 32.0 °F 22.1 °F 30.2 °F 93% 29.98 in 1.0 mi East 13.8 mph 20.7 mph 0.03 in   Overcast
8:15 PM 32.0 °F 23.6 °F 32.0 °F 100% 29.97 in 0.8 mi ENE 10.4 mph - 0.02 in   Overcast
8:35 PM 32.0 °F 24.2 °F 32.0 °F 100% 29.95 in 0.5 mi NE 9.2 mph - 0.02 in   Overcast
8:55 PM 30.2 °F 20.8 °F 30.2 °F 100% 29.93 in 0.5 mi NE 11.5 mph - 0.06 in   Overcast
9:15 PM 32.0 °F 22.5 °F 30.2 °F 93% 29.92 in 1.0 mi NNE 12.7 mph 16.1 mph 0.06 in   Overcast
9:35 PM 32.0 °F 22.5 °F 30.2 °F 93% 29.90 in 1.0 mi NE 12.7 mph 18.4 mph 0.09 in   Overcast
9:55 PM 30.2 °F 20.8 °F 30.2 °F 100% 29.89 in 0.8 mi NNE 11.5 mph 23.0 mph 0.12 in   Overcast
10:15 PM 30.2 °F 21.3 °F 30.2 °F 100% 29.88 in 0.8 mi NNE 10.4 mph 18.4 mph 0.02 in   Overcast
10:35 PM 30.2 °F 21.3 °F 28.4 °F 93% 29.87 in 1.0 mi North 10.4 mph 19.6 mph 0.04 in   Overcast
10:55 PM 30.2 °F 19.8 °F 28.4 °F 93% 29.87 in 1.0 mi NNE 13.8 mph 20.7 mph 0.06 in   Overcast
11:15 PM 28.4 °F 21.2 °F 28.4 °F 100% 29.88 in 1.5 mi NNW 6.9 mph - 0.02 in   Overcast
11:35 PM 28.4 °F 19.7 °F 26.6 °F 93% 29.87 in 3.0 mi North 9.2 mph - 0.03 in   Overcast
11:55 PM 28.4 °F 19.1 °F 24.8 °F 86% 29.88 in 8.0 mi North 10.4 mph 16.1 mph 0.03 in   Mostly Cloudy